Alagna, Italy 16 day weather forecast

Slopes altitude range -1 m - -1m

Number of lifts: -1 Pistes: -1km

In some cases the lift and piste totals shown are for the ski domain (e.g. Three Valleys) rather than individual resort (e.g. Courchevel)

Overview

The 16 day weather forecast is fully updated 4 times every day.

    • Thu 21 FEB 2019
    • Thu 21
    • 10C 14C
    • Fri 22 FEB 2019
    • Fri 22
    • 6C 15C
    • Sat 23 FEB 2019
    • Sat 23
    • 6C 11C
    • Sun 24 FEB 2019
    • Sun 24
    • 1C 8C
    • Mon 25 FEB 2019
    • Mon 25
    • 2C 11C
    • Tue 26 FEB 2019
    • Tue 26
    • 5C 15C
    • Wed 27 FEB 2019
    • Wed 27
    • 7C 17C
    • Thu 28 FEB 2019
    • Thu 28
    • 7C 17C
    • Fri 01 MAR 2019
    • Fri 01
    • 8C 17C
    • Sat 02 MAR 2019
    • Sat 02
    • 8C 16C
    • Sun 03 MAR 2019
    • Sun 03
    • 9C 18C
    • Mon 04 MAR 2019
    • Mon 04
    • 8C 16C
    • Tue 05 MAR 2019
    • Tue 05
    • 10C 15C
    • Wed 06 MAR 2019
    • Wed 06
    • 7C 16C
    • Thu 07 MAR 2019
    • Thu 07
    • 6C 12C
    • Fri 08 MAR 2019
    • Fri 08
    • 1C 8C

Date:

Time Type 0°C level Temp Chill Snow Cloud Speed Gust Dir Press
18:00 2613m 14°C 14_2 0cm 18% 2mph 2mph 1027mB
21:00 2611m 9°C 9_4 0cm 4% 4mph 5mph 1028mB
0:00 2634m 8°C 8_3 0cm 2% 3mph 4mph 1028mB
3:00 2616m 7°C 7_3 0cm 0% 3mph 4mph 1027mB
6:00 2575m 6°C 6_2 0cm 13% 2mph 3mph 1027mB
9:00 2648m 6°C 6_4 0cm 0% 4mph 4mph 1026mB
12:00 2664m 15°C 15_3 0cm 0% 3mph 3mph 1025mB
15:00 2587m 16°C 16_3 0cm 1% 3mph 2mph 1024mB
18:00 2592m 16°C 16_2 0cm 35% 2mph 3mph 1027mB
21:00 2496m 10°C 10_3 0cm 0% 3mph 3mph 1029mB
0:00 2376m 9°C 9_2 0cm 0% 2mph 3mph 1030mB
3:00 2276m 7°C 7_4 0cm 0% 4mph 5mph 1030mB
6:00 2274m 6°C 6_5 0cm 0% 5mph 7mph 1031mB
9:00 1933m 6°C 6_9 0cm 1% 9mph 14mph 1032mB
12:00 1588m 11°C 11_13 0cm 15% 13mph 16mph 1032mB
15:00 1711m 11°C 11_14 0cm 31% 14mph 19mph 1031mB
18:00 2484m 11°C 11_10 0cm 17% 10mph 18mph 1033mB
21:00 1667m 4°C 4_8 0cm 1% 8mph 15mph 1035mB
0:00 1366m 3°C 3_7 0cm 1% 7mph 13mph 1036mB
3:00 1238m 2°C 2_6 0cm 0% 6mph 11mph 1035mB
6:00 1127m 1°C 1_5 0cm 0% 5mph 7mph 1035mB
9:00 1605m 1°C 1_7 0cm 0% 7mph 10mph 1035mB
12:00 2518m 8°C 8_8 0cm 0% 8mph 10mph 1034mB
15:00 2602m 9°C 9_7 0cm 0% 7mph 8mph 1033mB
18:00 2841m 9°C 9_3 0cm 0% 3mph 4mph 1033mB
21:00 2893m 5°C 5_3 0cm 0% 3mph 5mph 1034mB
0:00 2741m 4°C 4_4 0cm 0% 4mph 5mph 1034mB
3:00 2578m 3°C 3_5 0cm 0% 5mph 6mph 1034mB
6:00 2362m 2°C 2_6 0cm 0% 6mph 9mph 1035mB
9:00 2186m 2°C 2_7 0cm 0% 7mph 12mph 1037mB
12:00 1996m 11°C 11_7 0cm 0% 7mph 9mph 1036mB
15:00 2395m 11°C 11_5 0cm 0% 5mph 6mph 1035mB
18:00 2495m 11°C 11_2 0cm 0% 2mph 3mph 1035mB
21:00 2621m 6°C 6_4 0cm 0% 4mph 6mph 1035mB
0:00 2617m 6°C 6_4 0cm 0% 4mph 5mph 1034mB
3:00 2724m 5°C 5_4 0cm 21% 4mph 5mph 1032mB
6:00 2873m 5°C 5_3 0cm 17% 3mph 4mph 1031mB
9:00 3057m 5°C 5_2 0cm 2% 2mph 1mph 1030mB
12:00 3099m 15°C 15_3 0cm 8% 3mph 3mph 1028mB
15:00 3076m 16°C 16_3 0cm 36% 3mph 4mph 1027mB
18:00 3109m 16°C 16_2 0cm 29% 2mph 3mph 1027mB
21:00 3176m 9°C 9_1 0cm 0% 1mph 1mph 1027mB
0:00 3198m 8°C 8_2 0cm 0% 2mph 3mph 1027mB
3:00 3229m 7°C 7_3 0cm 0% 3mph 4mph 1025mB
6:00 3268m 7°C 7_3 0cm 0% 3mph 5mph 1024mB
9:00 3292m 7°C 7_1 0cm 0% 1mph 1mph 1024mB
12:00 3305m 17°C 17_5 0cm 0% 5mph 5mph 1024mB
15:00 3275m 18°C 18_6 0cm 0% 6mph 8mph 1023mB
18:00 3265m 18°C 18_5 0cm 0% 5mph 7mph 1024mB
21:00 3246m 10°C 10_3 0cm 0% 3mph 5mph 1025mB
0:00 3215m 8°C 8_0 0cm 0% 0mph 1mph 1025mB
3:00 3209m 8°C 8_3 0cm 0% 3mph 3mph 1024mB
6:00 3208m 7°C 7_3 0cm 0% 3mph 4mph 1024mB
9:00 3214m 7°C 7_2 0cm 0% 2mph 2mph 1023mB
12:00 3226m 17°C 17_3 0cm 10% 3mph 3mph 1022mB
15:00 3223m 19°C 19_3 0cm 23% 3mph 6mph 1020mB
18:00 3157m 19°C 19_5 0cm 12% 5mph 6mph 1021mB
21:00 3108m 11°C 11_5 0cm 0% 5mph 6mph 1022mB
0:00 3057m 9°C 9_4 0cm 0% 4mph 5mph 1022mB
3:00 2976m 8°C 8_3 0cm 0% 3mph 4mph 1021mB
6:00 2877m 8°C 8_2 0cm 0% 2mph 3mph 1022mB
9:00 2794m 8°C 8_1 0cm 0% 1mph 2mph 1022mB
12:00 2726m 17°C 17_1 0cm 0% 1mph 5mph 1022mB
15:00 2712m 18°C 18_4 0cm 38% 4mph 6mph 1021mB
18:00 2646m 18°C 18_5 0cm 46% 5mph 7mph 1022mB
21:00 2555m 10°C 10_5 0cm 54% 5mph 7mph 1023mB
0:00 2511m 9°C 9_4 0cm 53% 4mph 5mph 1022mB
3:00 2414m 8°C 8_3 0cm 65% 3mph 3mph 1022mB
6:00 2330m 8°C 8_3 0cm 69% 3mph 4mph 1022mB
9:00 2289m 8°C 8_3 0cm 77% 3mph 7mph 1022mB
12:00 2337m 16°C 16_7 0cm 64% 7mph 9mph 1020mB
15:00 2397m 17°C 17_11 0cm 70% 11mph 14mph 1018mB
18:00 2499m 17°C 17_9 0cm 50% 9mph 21mph 1020mB
21:00 2719m 10°C 10_5 0cm 46% 5mph 11mph 1019mB
0:00 2604m 9°C 9_2 0cm 58% 2mph 4mph 1017mB
3:00 2519m 9°C 9_2 0cm 81% 2mph 4mph 1014mB
6:00 2512m 9°C 9_4 0cm 90% 4mph 6mph 1014mB
9:00 2447m 9°C 9_8 0cm 100% 8mph 15mph 1016mB
12:00 2509m 18°C 18_9 0cm 100% 9mph 11mph 1016mB
Morning 0mm 0 2785m 10°C 10_4 0cm 70% 4mph 5mph 1021mB
Afternoon 0mm 0 2892m 16°C 16_8 0cm 80% 8mph 12mph 1018mB
Morning 0mm 0 2583m 11°C 11_6 0cm 93% 6mph 12mph 1013mB
Afternoon 0mm 0 2269m 15°C 15_10 0cm 89% 10mph 14mph 1010mB
Morning 0mm 0 2298m 10°C 10_5 0cm 75% 5mph 8mph 1006mB
Afternoon 0mm 0 2277m 16°C 16_8 0cm 29% 8mph 11mph 1006mB
Morning 0mm 0 1994m 9°C 9_3 0cm 70% 3mph 4mph 1008mB
Afternoon 0mm 0 1382m 12°C 12_11 0cm 94% 11mph 14mph 1012mB
Morning 0mm 0 900m 4°C 4_7 0cm 2% 7mph 12mph 1025mB
Afternoon 0mm 0 833m 8°C 8_8 0cm 1% 8mph 12mph 1029mB
Morning 0mm 0 676m 2°C 2_4 0cm 0% 4mph 5mph 1036mB
Afternoon 0mm 0 1081m 9°C 9_2 0cm 10% 2mph 3mph 1031mB

16 day outlook at a glance

Forecast issued: 21/02/2019 17:42:47

Chat

Your comments and questions. In a resort? Let us know what it's like!


Characters left 250

For terms and conditions see Readers Comments on the Cookie and privacy policy page.